{"data":{"norad_id":68976,"epoch":"2026-05-25T04:00:03.998880Z","epoch_age_seconds":53815,"freshness":"FRESH","line1":"1 68976U 26099AB  26145.16671295 -.02165962  00000+0 -26942-1 0  9993","line2":"2 68976  53.1590 269.9715 0000867  80.3614 260.1957 15.62447794  5018","mean_motion":15.62447794,"eccentricity":8.67e-5,"inclination_deg":53.159,"raan_deg":269.9715,"arg_perigee_deg":80.3614,"mean_anomaly_deg":260.1957,"bstar":-0.026942,"rev_number":501,"period_min":92.163079338061,"perigee_km":380.00287483242,"apogee_km":381.17483789591,"semimajor_km":6758.7258563642,"source":"CELESTRAK","updated_at":"2026-05-25T13:38:22.077843Z"}}